[[{"header":{"parameterUnit":"m.s-1","parameterCategory":1,"la1":30.2991,"la2":30.254,"lo1":-89.0895,"lo2":-89.0444,"dy":0.0017,"dx":0.0017,"nx":28,"ny":28,"refTime":"2024-07-02T03:00:00:Z","depth":0,"parameterNumber":2,"parameterNumberName":"U-component_of_WINDS"},"data":[0,0,0,0,0,0,0,0,0,0,0,0,0,0,0,0,0,0,0,0,0,0,0,0,0,0,0,0,0,0,0,0,0,0,0,0,0,0,0,0,0,0,0,0,0,0,0,0,0,0,0,0,0,0,0,0,0,0,1.4556,1.4557,0,1.4621,1.4621,1.4622,1.4578,1.4576,1.4574,1.4572,1.4639,1.4643,1.4647,0,0,0,0,0,0,0,0,0,0,0,0,0,1.4395,1.4398,1.4556,1.4557,1.4558,1.4621,1.4621,1.4622,1.4578,1.4576,1.4573,1.4571,1.4638,1.4643,1.4647,0,0,0,0,0,0,0,0,0,0,0,0,0,1.4463,1.4399,1.4556,1.4543,1.4543,1.462,1.4622,1.4623,1.4579,1.4576,1.4573,1.457,1.4637,1.4642,1.4648,1.4742,0,0,1.4664,1.4667,0,0,0,0,0,0,0,0,1.4459,1.4469,1.4544,1.4544,1.4544,1.4588,1.4589,1.4663,1.4579,1.4565,1.4572,1.4568,1.4625,1.4631,1.465,1.4745,1.4748,1.4665,1.4668,1.4671,1.4672,0,0,0,0,0,0,0,1.4454,1.4466,1.4582,1.4545,1.4545,1.4534,1.4541,1.4603,1.4611,1.4566,1.4563,1.4571,1.4624,1.4645,1.4651,1.4749,1.4665,1.467,1.4673,1.4675,1.4922,1.4925,0,0,0,0,0,0,1.4451,1.4462,1.458,1.4584,1.4493,1.454,1.4547,1.4577,1.461,1.4612,1.4574,1.4569,1.4637,1.4645,1.4653,1.4763,1.467,1.4676,1.4679,1.4919,1.4923,1.4926,0,0,0,0,0,0,1.4448,1.4462,1.4577,1.4522,1.4536,1.4546,1.458,1.458,1.46,1.4616,1.4617,1.4593,1.4635,1.4646,1.4719,1.4765,1.4678,1.4683,1.4915,1.492,1.4924,1.4986,0,0,0,0,0,0,1.4443,1.4461,1.4497,1.4523,1.4539,1.4642,1.4583,1.4583,1.461,1.4604,1.4635,1.4637,1.4633,1.4711,1.4725,1.4771,1.4687,1.4911,1.4917,1.4923,1.498,1.4992,1.5003,0,0,0,0,0,1.4437,1.4512,1.4499,1.4513,1.4584,1.4645,1.4654,1.4648,1.4614,1.4649,1.4659,1.4636,1.4759,1.4719,1.4734,1.4783,1.4908,1.4915,1.4922,1.4975,1.499,1.5003,0,0,0,0,0,0,1.4492,1.4516,1.4501,1.4587,1.4614,1.4637,1.4682,1.4665,1.4703,1.4696,1.4687,1.4694,1.4771,1.4785,1.4741,1.4875,1.4828,1.4838,1.4862,1.4877,1.4888,1.4882,1.4692,0,0,0,0,0,1.4514,1.4561,1.4579,1.4653,1.4668,1.4673,1.4699,1.4692,1.472,1.4732,1.4747,1.4775,1.482,1.485,1.4892,1.4982,1.4987,1.5023,1.5035,1.5044,1.5053,1.5099,1.5114,1.495,1.495,1.495,0,0,1.4559,1.4578,1.4609,1.4665,1.4685,1.4733,1.4683,1.4737,1.4772,1.474,1.4809,1.4822,1.4853,1.4935,1.4972,1.4949,1.5099,1.5054,1.5061,1.5064,1.5108,1.5123,1.5137,1.4955,1.4954,1.4953,0,0,1.4667,1.4687,1.4749,1.477,1.4801,1.4804,1.4819,1.4845,1.4852,1.4921,1.4897,1.494,1.5018,1.504,1.5062,1.5177,1.5156,1.5191,1.5251,1.5296,1.5309,1.532,1.5359,1.5373,1.52,1.52,1.52,0,1.472,1.4791,1.4784,1.4839,1.4863,1.4835,1.4898,1.4919,1.4963,1.498,1.4954,1.5049,1.5069,1.5154,1.5182,1.5201,1.5217,1.5186,1.5308,1.5319,1.5329,1.5366,1.5381,1.5204,1.5204,1.5203,1.5203,0,1.4853,1.4904,1.495,1.4991,1.5022,1.5081,1.5081,1.5113,1.5103,1.5109,1.5179,1.5201,1.5246,1.5267,1.5259,1.535,1.5335,1.5309,1.5261,1.5349,1.5383,1.5397,1.521,1.5208,1.5207,1.5206,0,0,1.4995,1.5031,1.5048,1.5065,1.5098,1.5136,1.5194,1.5237,1.5263,1.5294,1.534,1.5407,1.5382,1.5406,1.5401,1.5441,1.5527,1.5409,1.541,1.5428,1.5626,1.5644,1.566,1.5514,1.5517,1.5519,1.5623,0,1.5102,1.52,1.5195,1.5287,1.5332,1.5307,1.5356,1.5381,1.5388,1.5427,1.5435,1.548,1.5446,1.546,1.5499,1.5508,1.5566,1.5501,1.5556,1.5558,1.5546,1.5678,1.5697,1.5794,1.5636,1.5639,1.564,0,1.5239,1.5274,1.537,1.5393,1.5412,1.5457,1.5495,1.5533,1.5561,1.5563,1.559,1.5577,1.5634,1.5586,1.5664,1.5619,1.5642,1.565,1.5654,1.5656,1.5602,1.5682,1.5825,1.5839,1.5662,1.566,1.5658,0,1.5329,1.54,1.5466,1.5483,1.5512,1.5544,1.5558,1.5582,1.5608,1.5642,1.5658,1.5699,1.572,1.5752,1.575,1.5716,1.5828,1.5781,1.583,1.583,1.5852,1.585,1.5999,1.5872,1.5872,1.5871,1.5871,0,1.5447,1.5507,1.5507,1.5547,1.5612,1.5606,1.5671,1.5682,1.5703,1.5745,1.5727,1.5766,1.5763,1.5802,1.5802,1.5865,1.5876,1.5878,1.5876,1.5878,1.5877,1.589,1.5882,1.5875,1.5874,1.5874,1.5873,0,1.5558,1.5561,1.563,1.5653,1.566,1.5707,1.5725,1.5763,1.5769,1.5821,1.5834,1.5842,1.5887,1.5889,1.5943,1.5942,1.6018,1.601,1.6008,1.6005,1.6053,1.6047,1.6212,1.6232,1.6095,1.6097,1.6098,0,1.5631,1.5676,1.5703,1.5729,1.5744,1.5787,1.5813,1.5809,1.5836,1.587,1.5903,1.5947,1.5982,1.6056,1.6067,1.6107,1.6098,1.6154,1.6104,1.6103,1.6096,1.6092,1.6095,1.6162,1.6164,1.6165,1.6166,0,1.576,1.5759,1.5797,1.5835,1.5866,1.5896,1.5923,1.5946,1.5945,1.5977,1.6023,1.6049,1.6103,1.6146,1.6185,1.6199,1.6182,1.6182,1.6195,1.6195,1.619,1.619,1.6031,1.6177,1.6176,1.6175,1.6175,1.6174,1.5852,1.589,1.5914,1.5956,1.5976,1.6002,1.6038,1.6048,1.6086,1.6128,1.6124,1.6174,1.62,1.625,1.6267,1.6306,1.6287,1.6307,1.6311,1.6315,1.6319,1.6187,1.6314,1.6314,1.6313,1.6313,1.6313,0,1.5977,1.5992,1.6031,1.6069,1.6102,1.6084,1.6113,1.6142,1.6186,1.6211,1.6245,1.6297,1.6339,1.6353,1.6393,1.6421,1.6414,1.6432,1.6428,1.6431,1.6335,1.6318,1.6436,1.6436,1.6436,1.6436,1.6436,1.6436,1.6046,1.6108,1.611,1.6181,1.6195,1.6243,1.6261,1.6285,1.6305,1.6363,1.6397,1.6406,1.6426,1.6467,1.6504,1.6507,1.6522,1.6542,1.6541,1.6451,1.6438,1.6426,1.641,1.6546,1.6546,1.6634,1.6634,1.6635]},{"header":{"parameterUnit":"m.s-1","parameterCategory":1,"la1":30.2991,"la2":30.254,"lo1":-89.0895,"lo2":-89.0444,"dy":0.0017,"dx":0.0017,"nx":28,"ny":28,"refTime":"2024-07-02T03:00:00:Z","depth":0,"parameterNumber":3,"parameterNumberName":"V-component_of_WINDS"},"data":[0,0,0,0,0,0,0,0,0,0,0,0,0,0,0,0,0,0,0,0,0,0,0,0,0,0,0,0,0,0,0,0,0,0,0,0,0,0,0,0,0,0,0,0,0,0,0,0,0,0,0,0,0,0,0,0,0,0,3.2813,3.2812,0,3.2729,3.2728,3.2727,3.257,3.2567,3.2564,3.2561,3.2477,3.2477,3.2478,0,0,0,0,0,0,0,0,0,0,0,0,0,3.2842,3.2842,3.2813,3.2812,3.2811,3.2729,3.2728,3.2726,3.257,3.2567,3.2563,3.2559,3.2477,3.2477,3.2478,0,0,0,0,0,0,0,0,0,0,0,0,0,3.2801,3.2842,3.2813,3.2723,3.2714,3.2729,3.2728,3.2726,3.2571,3.2566,3.2562,3.2558,3.2476,3.2477,3.2478,3.2575,0,0,3.2481,3.2481,0,0,0,0,0,0,0,0,3.2803,3.28,3.2737,3.2729,3.2719,3.2655,3.2707,3.2676,3.2572,3.2626,3.2561,3.2555,3.254,3.2535,3.253,3.2571,3.2567,3.2481,3.2482,3.2482,3.2482,0,0,0,0,0,0,0,3.2806,3.2803,3.278,3.2737,3.2726,3.2688,3.2677,3.27,3.2609,3.262,3.2609,3.2601,3.2534,3.2529,3.2526,3.2566,3.2481,3.2482,3.2482,3.2483,3.2679,3.2684,0,0,0,0,0,0,3.2822,3.2806,3.2782,3.2777,3.2751,3.2691,3.2679,3.268,3.2609,3.2593,3.2605,3.2594,3.253,3.2526,3.2523,3.2627,3.2482,3.2483,3.2483,3.2675,3.268,3.2685,0,0,0,0,0,0,3.2823,3.2821,3.2786,3.2788,3.2781,3.2695,3.2698,3.2681,3.2675,3.2597,3.258,3.2616,3.2526,3.2522,3.2562,3.2622,3.2483,3.2484,3.2669,3.2676,3.2683,3.284,0,0,0,0,0,0,3.2825,3.2823,3.2858,3.279,3.2781,3.2826,3.2702,3.2683,3.2677,3.2662,3.2603,3.2589,3.2522,3.2562,3.2563,3.2621,3.2485,3.2663,3.2672,3.2681,3.2828,3.2851,3.287,0,0,0,0,0,3.2826,3.2906,3.286,3.2858,3.2823,3.283,3.2825,3.2745,3.2683,3.2717,3.2667,3.2591,3.2617,3.2567,3.2567,3.2626,3.2659,3.267,3.268,3.2819,3.2847,3.287,0,0,0,0,0,0,3.2984,3.2896,3.2844,3.2904,3.2876,3.2803,3.2844,3.2778,3.2767,3.2753,3.2657,3.2645,3.2697,3.2667,3.2613,3.2715,3.2626,3.2637,3.2732,3.2757,3.2778,3.2781,3.2485,0,0,0,0,0,3.3026,3.3038,3.2961,3.3022,3.301,3.2931,3.293,3.2872,3.2839,3.2826,3.2778,3.2749,3.275,3.2753,3.275,3.2826,3.2809,3.2867,3.2888,3.2905,3.2914,3.2948,3.2972,3.272,3.272,3.272,0,0,3.3112,3.3066,3.3079,3.3052,3.3023,3.3037,3.2921,3.2942,3.295,3.2829,3.2862,3.2828,3.2789,3.2846,3.2869,3.2822,3.2981,3.2919,3.2933,3.2932,3.2961,3.2985,3.3006,3.2727,3.2726,3.2725,0,0,3.3274,3.3243,3.3287,3.3261,3.3218,3.3165,3.3176,3.3114,3.3085,3.3118,3.3026,3.3037,3.3043,3.3017,3.3006,3.3162,3.309,3.3164,3.3271,3.3305,3.3325,3.3342,3.3393,3.3413,3.3175,3.3175,3.3175,0,3.3386,3.3403,3.332,3.3345,3.3335,3.3226,3.3271,3.325,3.3209,3.3205,3.3154,3.3156,3.3124,3.3171,3.3209,3.3206,3.3213,3.3167,3.3329,3.3345,3.336,3.3407,3.3427,3.3184,3.3183,3.3182,3.3181,0,3.3541,3.3554,3.3597,3.3557,3.3554,3.3589,3.3511,3.3518,3.3461,3.3414,3.3448,3.3405,3.3389,3.3398,3.3344,3.3439,3.341,3.3347,3.3253,3.3394,3.3436,3.3454,3.3197,3.3193,3.3191,3.3189,0,0,3.3794,3.3711,3.3727,3.3707,3.3653,3.3662,3.3694,3.3678,3.3683,3.3661,3.3682,3.369,3.363,3.3617,3.356,3.3591,3.3711,3.3522,3.3519,3.3554,3.3808,3.3852,3.3875,3.3666,3.367,3.3672,3.3809,0,3.3941,3.3986,3.3913,3.3975,3.3985,3.3884,3.3911,3.3881,3.3839,3.3841,3.3795,3.38,3.3723,3.3713,3.374,3.3691,3.376,3.3681,3.3682,3.3683,3.3689,3.3897,3.3944,3.4075,3.3826,3.3829,3.3831,0,3.4115,3.4099,3.4162,3.4103,3.4104,3.413,3.4108,3.4114,3.4078,3.4045,3.4032,3.3964,3.399,3.3906,3.3939,3.3887,3.3884,3.3861,3.3864,3.3856,3.3761,3.389,3.4116,3.4134,3.3857,3.3855,3.3853,0,3.4287,3.4282,3.4318,3.4305,3.4239,3.4258,3.4232,3.4192,3.4187,3.4171,3.4166,3.4154,3.4146,3.4138,3.4069,3.4014,3.4109,3.402,3.408,3.4081,3.4099,3.4097,3.4322,3.4108,3.4108,3.4108,3.4107,0,3.4453,3.4495,3.4393,3.4415,3.4458,3.4376,3.4422,3.4385,3.4351,3.4363,3.4279,3.4292,3.4203,3.4207,3.4154,3.4187,3.4186,3.4158,3.4142,3.4162,3.4165,3.4155,3.4141,3.4113,3.4112,3.4111,3.411,0,3.4649,3.4584,3.4615,3.4551,3.4536,3.457,3.4514,3.4532,3.4486,3.4503,3.4502,3.4429,3.443,3.4362,3.4349,3.4313,3.4368,3.4339,3.4379,3.4367,3.4429,3.4422,3.4649,3.4673,3.445,3.4453,3.4455,0,3.4756,3.4785,3.4724,3.4726,3.4703,3.4708,3.4702,3.4624,3.4622,3.4584,3.4606,3.46,3.459,3.4596,3.4541,3.4531,3.4497,3.4578,3.4495,3.4513,3.4492,3.4489,3.4489,3.4594,3.4597,3.4599,3.4601,0,3.4952,3.4918,3.4913,3.4897,3.4893,3.4877,3.4855,3.4862,3.4776,3.4779,3.4778,3.477,3.4757,3.4751,3.4731,3.4704,3.4637,3.4629,3.4641,3.4658,3.4678,3.4662,3.442,3.4622,3.462,3.4618,3.4617,3.4616,3.5102,3.5122,3.5081,3.5078,3.5054,3.5037,3.5049,3.5004,3.5002,3.4984,3.494,3.4946,3.491,3.4875,3.4855,3.4858,3.4817,3.4837,3.484,3.4845,3.4854,3.4683,3.4855,3.4854,3.4854,3.4853,3.4853,0,3.5287,3.5257,3.5256,3.5228,3.5226,3.5166,3.514,3.5142,3.5148,3.512,3.5112,3.5111,3.5105,3.5052,3.504,3.5053,3.5022,3.5052,3.5047,3.5041,3.4894,3.4882,3.5076,3.5076,3.5076,3.5076,3.5076,3.5076,3.5383,3.5413,3.5375,3.5393,3.5362,3.5366,3.5356,3.5339,3.5316,3.5318,3.5313,3.5279,3.524,3.5225,3.5216,3.5201,3.5198,3.5237,3.5211,3.5073,3.5051,3.5031,3.5018,3.5239,3.5239,3.5356,3.5358,3.5358]}]]